Zurück zum Katalog

CZ-6A DEB

AktivPO
NORAD 61811·DEBRIS·🇨🇳 China

Gestartet Aug 6, 2024 von Taiyuan Satellite Launch Center

Loading…

Nächste Überflüge (nächste 24 Stunden)

TLE

AktuellSource: Space-Track

Epoche: Sep 14, 2026, 00:07 UTC

1 61811U 24140ACB 26257.00529295  .00001469  00000-0  77898-3 0  9994
2 61811  89.0351 269.7421 0096431 300.3437  58.8238 14.10828317103776

Verfolge CZ-6A DEB in Echtzeit mit AllMySat

Download on the App Store